Location: Newark
(35.2672°N, 80.7344°W)
Time: 06:23:44
(UTC+00:00)

A-11 Canister half - Pass Details

Date: 30 January 2020
Orbit: 1524 x 1684 km, 47.3° (Epoch: 27 February)

Event Time Altitude Azimuth Distance (km) Brightness Sun altitude
Rises 00:51:21 0° 288° (WNW) 4,689 12.6 -25.3°
Reaches altitude 10° 00:54:40 10° 296° (WNW) 3,719 11.8 -26.0°
Maximum altitude 01:03:24 40° 4° (N) 2,167 9.6 -27.8°
Enters shadow 01:06:00 35° 37° (NE) 2,364 9.6 -28.3°
